Flag for Martinique Weather past 2 weeks in Fort-de-France, Martinique

Now
77 °F

Passing clouds.


Feels Like: 79 °F
Forecast: N/A
Wind: 7 mph from Northeast

Location: Le Lamentin Airport

Current Time: Dec 27, 2014 at 6:19:36 PM

Latest Report: Dec 27, 2014 at 6:00 PM


Visibility: N/A

Pressure: 30.01 "Hg

Humidity: 79%

Dew point: 70 °F

Location of Fort-de-FranceLocation

Historic Weather in Fort-de-France — Graph

°F

Fort-de-France temperature yesterday

Maximum temperature yesterday: 82 °F (at 10:30 AM)
Minimum temperature yesterday: 75 °F (at 6:00 AM)
Average temperature yesterday: 79 °F

Past Weeks' High & Low Weather Summary

 TemperatureHumidityPressure
High90 °F (Dec 14, 12:30 PM)100% (Dec 14, 2:00 AM)30.04 "Hg (Dec 14, 2:00 AM)
Low68 °F (Dec 14, 5:00 AM)52% (Dec 14, 12:30 PM)29.83 "Hg (Dec 14, 3:30 PM)
Average78 °F79%29.95 "Hg
* Reported Dec 12 5:00 PM — Dec 27 5:00 PM, Fort-de-France, Weather by CustomWeather, © 2014

Note: Actual official high and low records may vary slightly from our data, if they occured in-between our weather recording intervals... More about our weather records

Advertising

Fort-de-France weather history for previous 24 hours

 ConditionsComfort  
Time TempWeatherWind HumidityBarometerVisibility
5:00 PM
Dec 27
79 °FScattered clouds.9 mph74%29.98 "HgN/A
4:30 PM79 °FBroken clouds.10 mph74%29.98 "HgN/A
4:00 PM82 °FBroken clouds.13 mph66%29.98 "HgN/A
3:30 PM82 °FBroken clouds.13 mph66%29.98 "HgN/A
3:00 PM82 °FPartly sunny.14 mph70%29.98 "HgN/A
2:30 PM82 °FPartly sunny.15 mph66%29.98 "HgN/A
2:00 PM82 °FScattered clouds.13 mph66%29.98 "HgN/A
1:30 PM84 °FPartly sunny.14 mph66%29.98 "HgN/A
1:00 PM84 °FPartly sunny.16 mph62%29.98 "HgN/A
12:30 PM82 °FScattered clouds.14 mph66%30.01 "HgN/A
12:00 PM82 °FPassing clouds.14 mph66%30.01 "HgN/A
11:30 AM82 °FPassing clouds.15 mph66%30.01 "HgN/A
11:00 AM82 °FPassing clouds.16 mph66%30.01 "HgN/A
10:30 AM82 °FScattered clouds.14 mph66%30.04 "HgN/A
10:00 AM81 °FCloudy.12 mph70%30.04 "HgN/A
9:30 AM84 °FPartly sunny.8 mph66%30.04 "HgN/A
9:00 AM81 °FPartly sunny.5 mph74%30.04 "HgN/A
8:30 AM79 °FBroken clouds.6 mph79%30.04 "HgN/A
8:00 AM77 °FMostly cloudy.8 mph83%30.01 "HgN/A
7:30 AM77 °FMostly cloudy.10 mph83%30.01 "HgN/A
7:00 AM77 °FScattered clouds.7 mph79%29.98 "HgN/A
6:30 AM75 °FClear.10 mph89%29.98 "HgN/A
6:00 AM77 °FClear.10 mph83%29.98 "HgN/A
5:30 AM75 °FPassing clouds.7 mph89%29.95 "HgN/A
5:00 AM75 °FClear.6 mph89%29.95 "HgN/A
4:30 AM75 °FPartly cloudy.6 mph89%29.95 "HgN/A
4:00 AM77 °FRain. Partly cloudy.8 mph83%29.95 "HgN/A
3:30 AM77 °FOvercast.9 mph83%29.95 "HgN/A
3:00 AM77 °FPartly cloudy.3 mph83%29.95 "HgN/A
2:30 AM75 °FPassing clouds.3 mph83%29.95 "HgN/A
2:00 AM77 °FPassing clouds.7 mph79%29.95 "HgN/A
1:30 AM77 °FPassing clouds.8 mph83%29.98 "HgN/A
1:00 AM77 °FPassing clouds.7 mph83%29.98 "HgN/A
12:30 AM77 °FPassing clouds.7 mph79%29.98 "HgN/A
11:30 PM
Dec 26
75 °FClear.6 mph83%30.01 "HgN/A
11:00 PM77 °FPartly cloudy.8 mph83%30.01 "HgN/A
10:30 PM77 °FClear.6 mph79%30.01 "HgN/A
10:00 PM77 °FPassing clouds.8 mph79%30.01 "HgN/A
9:30 PM77 °FLight rain. Passing clouds.9 mph79%30.01 "HgN/A
9:00 PM77 °FPassing clouds.9 mph79%30.01 "HgN/A
8:30 PM79 °FPassing clouds.9 mph74%30.01 "HgN/A
8:00 PM79 °FPassing clouds.8 mph74%29.98 "HgN/A
7:30 PM77 °FClear.9 mph79%29.98 "HgN/A
7:00 PM77 °FClear.8 mph79%29.98 "HgN/A
6:30 PM79 °FPassing clouds.10 mph74%29.98 "HgN/A
6:00 PM79 °FPassing clouds.10 mph74%29.98 "HgN/A
Weather by CustomWeather, © 2014

See weather overviewHow to use our weather pages